Year,Month,Day,Hour,Minute,Value (Times are PST for temperature in C)
2012,05,26,00,00,10.70
2012,05,26,00,01,10.70
2012,05,26,00,02,10.60
2012,05,26,00,03,10.60
2012,05,26,00,04,10.60
2012,05,26,00,05,10.60
2012,05,26,00,06,10.60
2012,05,26,00,07,10.60
2012,05,26,00,08,10.60
2012,05,26,00,09,10.60
2012,05,26,00,10,10.60
2012,05,26,00,11,10.50
2012,05,26,00,12,10.40
2012,05,26,00,13,10.40
2012,05,26,00,14,10.40
2012,05,26,00,15,10.40
2012,05,26,00,16,10.40
2012,05,26,00,17,10.40
2012,05,26,00,18,10.40
2012,05,26,00,19,10.30
2012,05,26,00,20,10.30
2012,05,26,00,21,10.30
2012,05,26,00,22,10.30
2012,05,26,00,23,10.20
2012,05,26,00,24,10.20
2012,05,26,00,25,10.20
2012,05,26,00,26,10.20
2012,05,26,00,27,10.20
2012,05,26,00,28,10.10
2012,05,26,00,29,10.10
2012,05,26,00,30,10.10
2012,05,26,00,31,10.10
2012,05,26,00,32,10.10
2012,05,26,00,33,10.10
2012,05,26,00,34,10.00
2012,05,26,00,35,9.90
2012,05,26,00,36,9.90
2012,05,26,00,37,9.90
2012,05,26,00,38,9.90
2012,05,26,00,39,9.90
2012,05,26,00,40,9.90
2012,05,26,00,41,9.90
2012,05,26,00,42,9.80
2012,05,26,00,43,9.80
2012,05,26,00,44,9.80
2012,05,26,00,45,9.70
2012,05,26,00,46,9.70
2012,05,26,00,47,9.70
2012,05,26,00,48,9.70
2012,05,26,00,49,9.70
2012,05,26,00,50,9.70
2012,05,26,00,51,9.60
2012,05,26,00,52,9.60
2012,05,26,00,53,9.60
2012,05,26,00,54,9.60
2012,05,26,00,55,9.50
2012,05,26,00,56,9.50
2012,05,26,00,57,9.50
2012,05,26,00,58,9.50
2012,05,26,00,59,9.40
2012,05,26,01,00,9.40
2012,05,26,01,01,9.40
2012,05,26,01,02,9.30
2012,05,26,01,03,9.30
2012,05,26,01,04,9.30
2012,05,26,01,05,9.20
2012,05,26,01,06,9.20
2012,05,26,01,07,9.20
2012,05,26,01,08,9.20
2012,05,26,01,09,9.20
2012,05,26,01,10,9.20
2012,05,26,01,11,9.20
2012,05,26,01,12,9.20
2012,05,26,01,13,9.20
2012,05,26,01,14,9.10
2012,05,26,01,15,9.10
2012,05,26,01,16,9.10
2012,05,26,01,17,9.10
2012,05,26,01,18,9.10
2012,05,26,01,19,9.10
2012,05,26,01,20,9.10
2012,05,26,01,21,9.00
2012,05,26,01,22,9.00
2012,05,26,01,23,9.00
2012,05,26,01,24,9.00
2012,05,26,01,25,9.00
2012,05,26,01,26,9.00
2012,05,26,01,27,8.90
2012,05,26,01,28,8.90
2012,05,26,01,29,8.90
2012,05,26,01,30,8.90
2012,05,26,01,31,8.90
2012,05,26,01,32,8.80
2012,05,26,01,33,8.80
2012,05,26,01,34,8.80
2012,05,26,01,35,8.70
2012,05,26,01,36,8.70
2012,05,26,01,37,8.70
2012,05,26,01,38,8.70
2012,05,26,01,39,8.70
2012,05,26,01,40,8.70
2012,05,26,01,41,8.70
2012,05,26,01,42,8.70
2012,05,26,01,43,8.70
2012,05,26,01,44,8.70
2012,05,26,01,45,8.60
2012,05,26,01,46,8.60
2012,05,26,01,47,8.60
2012,05,26,01,48,8.60
2012,05,26,01,49,8.60
2012,05,26,01,50,8.50
2012,05,26,01,51,8.50
2012,05,26,01,52,8.50
2012,05,26,01,53,8.50
2012,05,26,01,54,8.40
2012,05,26,01,55,8.40
2012,05,26,01,56,8.40
2012,05,26,01,57,8.40
2012,05,26,01,58,8.30
2012,05,26,01,59,8.30
2012,05,26,02,00,8.30
2012,05,26,02,01,8.30
2012,05,26,02,02,8.30
2012,05,26,02,03,8.30
2012,05,26,02,04,8.30
2012,05,26,02,05,8.30
2012,05,26,02,06,8.20
2012,05,26,02,07,8.20
2012,05,26,02,08,8.20
2012,05,26,02,09,8.20
2012,05,26,02,10,8.20
2012,05,26,02,11,8.20
2012,05,26,02,12,8.20
2012,05,26,02,13,8.20
2012,05,26,02,14,8.20
2012,05,26,02,15,8.20
2012,05,26,02,16,8.20
2012,05,26,02,17,8.20
2012,05,26,02,18,8.20
2012,05,26,02,19,8.20
2012,05,26,02,20,8.20
2012,05,26,02,21,8.20
2012,05,26,02,22,8.20
2012,05,26,02,23,8.20
2012,05,26,02,24,8.20
2012,05,26,02,25,8.10
2012,05,26,02,26,8.10
2012,05,26,02,27,8.10
2012,05,26,02,28,8.10
2012,05,26,02,29,8.00
2012,05,26,02,30,8.00
2012,05,26,02,31,8.00
2012,05,26,02,32,8.00
2012,05,26,02,33,7.90
2012,05,26,02,34,7.90
2012,05,26,02,35,7.90
2012,05,26,02,36,7.90
2012,05,26,02,37,7.90
2012,05,26,02,38,7.90
2012,05,26,02,39,7.90
2012,05,26,02,40,7.80
2012,05,26,02,41,7.80
2012,05,26,02,42,7.80
2012,05,26,02,43,7.80
2012,05,26,02,44,7.80
2012,05,26,02,45,7.80
2012,05,26,02,46,7.80
2012,05,26,02,47,7.80
2012,05,26,02,48,7.80
2012,05,26,02,49,7.80
2012,05,26,02,50,7.80
2012,05,26,02,51,7.80
2012,05,26,02,52,7.80
2012,05,26,02,53,7.80
2012,05,26,02,54,7.80
2012,05,26,02,55,7.80
2012,05,26,02,56,7.80
2012,05,26,02,57,7.80
2012,05,26,02,58,7.80
2012,05,26,02,59,7.70
2012,05,26,03,00,7.70
2012,05,26,03,01,7.60
2012,05,26,03,02,7.60
2012,05,26,03,03,7.60
2012,05,26,03,04,7.50
2012,05,26,03,05,7.50
2012,05,26,03,06,7.50
2012,05,26,03,07,7.50
2012,05,26,03,08,7.50
2012,05,26,03,09,7.50
2012,05,26,03,10,7.50
2012,05,26,03,11,7.50
2012,05,26,03,12,7.50
2012,05,26,03,13,7.40
2012,05,26,03,14,7.40
2012,05,26,03,15,7.40
2012,05,26,03,16,7.40
2012,05,26,03,17,7.40
2012,05,26,03,18,7.40
2012,05,26,03,19,7.30
2012,05,26,03,20,7.30
2012,05,26,03,21,7.30
2012,05,26,03,22,7.30
2012,05,26,03,23,7.30
2012,05,26,03,24,7.30
2012,05,26,03,25,7.30
2012,05,26,03,26,7.30
2012,05,26,03,27,7.30
2012,05,26,03,28,7.30
2012,05,26,03,29,7.30
2012,05,26,03,30,7.30
2012,05,26,03,31,7.30
2012,05,26,03,32,7.30
2012,05,26,03,33,7.30
2012,05,26,03,34,7.30
2012,05,26,03,35,7.20
2012,05,26,03,36,7.20
2012,05,26,03,37,7.20
2012,05,26,03,38,7.20
2012,05,26,03,39,7.20
2012,05,26,03,40,7.20
2012,05,26,03,41,7.10
2012,05,26,03,42,7.10
2012,05,26,03,43,7.10
2012,05,26,03,44,7.10
2012,05,26,03,45,7.10
2012,05,26,03,46,7.10
2012,05,26,03,47,7.00
2012,05,26,03,48,7.00
2012,05,26,03,49,7.00
2012,05,26,03,50,7.00
2012,05,26,03,51,7.00
2012,05,26,03,52,7.00
2012,05,26,03,53,7.00
2012,05,26,03,54,6.90
2012,05,26,03,55,6.90
2012,05,26,03,56,6.90
2012,05,26,03,57,6.90
2012,05,26,03,58,6.90
2012,05,26,03,59,6.90
2012,05,26,04,00,6.90
2012,05,26,04,01,6.90
2012,05,26,04,02,6.80
2012,05,26,04,03,6.80
2012,05,26,04,04,6.80
2012,05,26,04,05,6.80
2012,05,26,04,06,6.80
2012,05,26,04,07,6.80
2012,05,26,04,08,6.80
2012,05,26,04,09,6.80
2012,05,26,04,10,6.80
2012,05,26,04,11,6.80
2012,05,26,04,12,6.80
2012,05,26,04,13,6.80
2012,05,26,04,14,6.80
2012,05,26,04,15,6.80
2012,05,26,04,16,6.80
2012,05,26,04,17,6.80
2012,05,26,04,18,6.80
2012,05,26,04,19,6.80
2012,05,26,04,20,6.80
2012,05,26,04,21,6.70
2012,05,26,04,22,6.70
2012,05,26,04,23,6.70
2012,05,26,04,24,6.60
2012,05,26,04,25,6.60
2012,05,26,04,26,6.60
2012,05,26,04,27,6.60
2012,05,26,04,28,6.60
2012,05,26,04,29,6.60
2012,05,26,04,30,6.60
2012,05,26,04,31,6.60
2012,05,26,04,32,6.60
2012,05,26,04,33,6.60
2012,05,26,04,34,6.50
2012,05,26,04,35,6.40
2012,05,26,04,36,6.40
2012,05,26,04,37,6.40
2012,05,26,04,38,6.40
2012,05,26,04,39,6.40
2012,05,26,04,40,6.40
2012,05,26,04,41,6.40
2012,05,26,04,42,6.40
2012,05,26,04,43,6.40
2012,05,26,04,44,6.40
2012,05,26,04,45,6.40
2012,05,26,04,46,6.40
2012,05,26,04,47,6.40
2012,05,26,04,48,6.40
2012,05,26,04,49,6.40
2012,05,26,04,50,6.40
2012,05,26,04,51,6.40
2012,05,26,04,52,6.40
2012,05,26,04,53,6.40
2012,05,26,04,54,6.40
2012,05,26,04,55,6.40
2012,05,26,04,56,6.40
2012,05,26,04,57,6.40
2012,05,26,04,58,6.40
2012,05,26,04,59,6.40
2012,05,26,05,00,6.40
2012,05,26,05,01,6.40
2012,05,26,05,02,6.40
2012,05,26,05,03,6.40
2012,05,26,05,04,6.40
2012,05,26,05,05,6.40
2012,05,26,05,06,6.40
2012,05,26,05,07,6.40
2012,05,26,05,08,6.40
2012,05,26,05,09,6.40
2012,05,26,05,10,6.40
2012,05,26,05,11,6.30
2012,05,26,05,12,6.30
2012,05,26,05,13,6.30
2012,05,26,05,14,6.30
2012,05,26,05,15,6.30
2012,05,26,05,16,6.30
2012,05,26,05,17,6.30
2012,05,26,05,18,6.30
2012,05,26,05,19,6.30
2012,05,26,05,20,6.30
2012,05,26,05,21,6.30
2012,05,26,05,22,6.30
2012,05,26,05,23,6.30
2012,05,26,05,24,6.30
2012,05,26,05,25,6.30
2012,05,26,05,26,6.30
2012,05,26,05,27,6.30
2012,05,26,05,28,6.30
2012,05,26,05,29,6.30
2012,05,26,05,30,6.30
2012,05,26,05,31,6.30
2012,05,26,05,32,6.30
2012,05,26,05,33,6.30
2012,05,26,05,34,6.30
2012,05,26,05,35,6.30
2012,05,26,05,36,6.30
2012,05,26,05,37,6.30
2012,05,26,05,38,6.40
2012,05,26,05,39,6.40
2012,05,26,05,40,6.40
2012,05,26,05,41,6.40
2012,05,26,05,42,6.40
2012,05,26,05,43,6.40
2012,05,26,05,44,6.40
2012,05,26,05,45,6.40
2012,05,26,05,46,6.40
2012,05,26,05,47,6.40
2012,05,26,05,48,6.40
2012,05,26,05,49,6.40
2012,05,26,05,50,6.40
2012,05,26,05,51,6.40
2012,05,26,05,52,6.40
2012,05,26,05,53,6.40
2012,05,26,05,54,6.40
2012,05,26,05,55,6.50
2012,05,26,05,56,6.60
2012,05,26,05,57,6.60
2012,05,26,05,58,6.60
2012,05,26,05,59,6.60
2012,05,26,06,00,6.60
2012,05,26,06,01,6.60
2012,05,26,06,02,6.60
2012,05,26,06,03,6.70
2012,05,26,06,04,6.70
2012,05,26,06,05,6.80
2012,05,26,06,06,6.80
2012,05,26,06,07,6.80
2012,05,26,06,08,6.90
2012,05,26,06,09,7.00
2012,05,26,06,10,7.10
2012,05,26,06,11,7.20
2012,05,26,06,12,7.30
2012,05,26,06,13,7.30
2012,05,26,06,14,7.30
2012,05,26,06,15,7.30
2012,05,26,06,16,7.40
2012,05,26,06,17,7.40
2012,05,26,06,18,7.50
2012,05,26,06,19,7.50
2012,05,26,06,20,7.60
2012,05,26,06,21,7.60
2012,05,26,06,22,7.70
2012,05,26,06,23,7.80
2012,05,26,06,24,7.80
2012,05,26,06,25,7.90
2012,05,26,06,26,7.90
2012,05,26,06,27,8.00
2012,05,26,06,28,8.00
2012,05,26,06,29,8.00
2012,05,26,06,30,8.10
2012,05,26,06,31,8.20
2012,05,26,06,32,8.20
2012,05,26,06,33,8.30
2012,05,26,06,34,8.30
2012,05,26,06,35,8.40
2012,05,26,06,36,8.50
2012,05,26,06,37,8.60
2012,05,26,06,38,8.70
2012,05,26,06,39,8.70
2012,05,26,06,40,8.80
2012,05,26,06,41,8.90
2012,05,26,06,42,9.00
2012,05,26,06,43,9.00
2012,05,26,06,44,9.10
2012,05,26,06,45,9.20
2012,05,26,06,46,9.20
2012,05,26,06,47,9.30
2012,05,26,06,48,9.30
2012,05,26,06,49,9.40
2012,05,26,06,50,9.50
2012,05,26,06,51,9.50
2012,05,26,06,52,9.60
2012,05,26,06,53,9.70
2012,05,26,06,54,9.80
2012,05,26,06,55,9.90
2012,05,26,06,56,10.00
2012,05,26,06,57,10.10
2012,05,26,06,58,10.20
2012,05,26,06,59,10.30
2012,05,26,07,00,10.40
2012,05,26,07,01,10.60
2012,05,26,07,02,10.70
2012,05,26,07,03,10.80
2012,05,26,07,04,10.90
2012,05,26,07,05,11.00
2012,05,26,07,06,11.10
2012,05,26,07,07,11.20
2012,05,26,07,08,11.30
2012,05,26,07,09,11.40
2012,05,26,07,10,11.40
2012,05,26,07,11,11.50
2012,05,26,07,12,11.60
2012,05,26,07,13,11.60
2012,05,26,07,14,11.70
2012,05,26,07,15,11.80
2012,05,26,07,16,11.80
2012,05,26,07,17,11.90
2012,05,26,07,18,12.00
2012,05,26,07,19,12.00
2012,05,26,07,20,12.10
2012,05,26,07,21,12.20
2012,05,26,07,22,12.20
2012,05,26,07,23,12.20
2012,05,26,07,24,12.30
2012,05,26,07,25,12.30
2012,05,26,07,26,12.40
2012,05,26,07,27,12.40
2012,05,26,07,28,12.50
2012,05,26,07,29,12.60
2012,05,26,07,30,12.60
2012,05,26,07,31,12.70
2012,05,26,07,32,12.80
2012,05,26,07,33,12.90
2012,05,26,07,34,13.00
2012,05,26,07,35,13.00
2012,05,26,07,36,13.10
2012,05,26,07,37,13.10
2012,05,26,07,38,13.20
2012,05,26,07,39,13.30
2012,05,26,07,40,13.30
2012,05,26,07,41,13.40
2012,05,26,07,42,13.40
2012,05,26,07,43,13.50
2012,05,26,07,44,13.60
2012,05,26,07,45,13.70
2012,05,26,07,46,13.70
2012,05,26,07,47,13.80
2012,05,26,07,48,13.80
2012,05,26,07,49,13.90
2012,05,26,07,50,13.90
2012,05,26,07,51,14.00
2012,05,26,07,52,14.00
2012,05,26,07,53,14.00
2012,05,26,07,54,14.10
2012,05,26,07,55,14.20
2012,05,26,07,56,14.30
2012,05,26,07,57,14.40
2012,05,26,07,58,14.50
2012,05,26,07,59,14.60
2012,05,26,08,00,14.70
2012,05,26,08,01,14.90
2012,05,26,08,02,15.10
2012,05,26,08,03,15.20
2012,05,26,08,04,15.40
2012,05,26,08,05,15.50
2012,05,26,08,06,15.70
2012,05,26,08,07,15.80
2012,05,26,08,08,15.90
2012,05,26,08,09,16.10
2012,05,26,08,10,16.20
2012,05,26,08,11,16.30
2012,05,26,08,12,16.40
2012,05,26,08,13,16.60
2012,05,26,08,14,16.70
2012,05,26,08,15,16.80
2012,05,26,08,16,16.90
2012,05,26,08,17,17.00
2012,05,26,08,18,17.10
2012,05,26,08,19,17.30
2012,05,26,08,20,17.30
2012,05,26,08,21,17.40
2012,05,26,08,22,17.50
2012,05,26,08,23,17.50
2012,05,26,08,24,17.60
2012,05,26,08,25,17.70
2012,05,26,08,26,17.80
2012,05,26,08,27,17.90
2012,05,26,08,28,17.90
2012,05,26,08,29,17.90
2012,05,26,08,30,17.90
2012,05,26,08,31,17.90
2012,05,26,08,32,17.90
2012,05,26,08,33,17.90
2012,05,26,08,34,17.90
2012,05,26,08,35,17.90
2012,05,26,08,36,17.90
2012,05,26,08,37,17.90
2012,05,26,08,38,17.90
2012,05,26,08,39,17.90
2012,05,26,08,40,17.90
2012,05,26,08,41,17.90
2012,05,26,08,42,17.90
2012,05,26,08,43,17.90
2012,05,26,08,44,17.90
2012,05,26,08,45,18.00
2012,05,26,08,46,18.10
2012,05,26,08,47,18.20
2012,05,26,08,48,18.20
2012,05,26,08,49,18.20
2012,05,26,08,50,18.30
2012,05,26,08,51,18.30
2012,05,26,08,52,18.40
2012,05,26,08,53,18.50
2012,05,26,08,54,18.60
2012,05,26,08,55,18.70
2012,05,26,08,56,18.80
2012,05,26,08,57,18.90
2012,05,26,08,58,18.90
2012,05,26,08,59,18.90
2012,05,26,09,00,18.90
2012,05,26,09,01,18.90
2012,05,26,09,02,18.90
2012,05,26,09,03,18.80
2012,05,26,09,04,18.80
2012,05,26,09,05,18.70
2012,05,26,09,06,18.70
2012,05,26,09,07,18.70
2012,05,26,09,08,18.70
2012,05,26,09,09,18.70
2012,05,26,09,10,18.70
2012,05,26,09,11,18.70
2012,05,26,09,12,18.80
2012,05,26,09,13,18.80
2012,05,26,09,14,18.80
2012,05,26,09,15,18.90
2012,05,26,09,16,18.90
2012,05,26,09,17,18.90
2012,05,26,09,18,19.00
2012,05,26,09,19,19.10
2012,05,26,09,20,19.10
2012,05,26,09,21,19.20
2012,05,26,09,22,19.20
2012,05,26,09,23,19.30
2012,05,26,09,24,19.30
2012,05,26,09,25,19.30
2012,05,26,09,26,19.30
2012,05,26,09,27,19.30
2012,05,26,09,28,19.30
2012,05,26,09,29,19.30
2012,05,26,09,30,19.40
2012,05,26,09,31,19.50
2012,05,26,09,32,19.50
2012,05,26,09,33,19.60
2012,05,26,09,34,19.60
2012,05,26,09,35,19.60
2012,05,26,09,36,19.60
2012,05,26,09,37,19.70
2012,05,26,09,38,19.70
2012,05,26,09,39,19.80
2012,05,26,09,40,19.90
2012,05,26,09,41,19.90
2012,05,26,09,42,19.90
2012,05,26,09,43,19.90
2012,05,26,09,44,19.90
2012,05,26,09,45,19.90
2012,05,26,09,46,19.80
2012,05,26,09,47,19.80
2012,05,26,09,48,19.80
2012,05,26,09,49,19.70
2012,05,26,09,50,19.70
2012,05,26,09,51,19.70
2012,05,26,09,52,19.70
2012,05,26,09,53,19.60
2012,05,26,09,54,19.60
2012,05,26,09,55,19.50
2012,05,26,09,56,19.50
2012,05,26,09,57,19.40
2012,05,26,09,58,19.40
2012,05,26,09,59,19.30
2012,05,26,10,00,19.30
2012,05,26,10,01,19.30
2012,05,26,10,02,19.30
2012,05,26,10,03,19.30
2012,05,26,10,04,19.30
2012,05,26,10,05,19.30
2012,05,26,10,06,19.40
2012,05,26,10,07,19.50
2012,05,26,10,08,19.50
2012,05,26,10,09,19.60
2012,05,26,10,10,19.60
2012,05,26,10,11,19.60
2012,05,26,10,12,19.60
2012,05,26,10,13,19.60
2012,05,26,10,14,19.50
2012,05,26,10,15,19.50
2012,05,26,10,16,19.50
2012,05,26,10,17,19.60
2012,05,26,10,18,19.70
2012,05,26,10,19,19.70
2012,05,26,10,20,19.90
2012,05,26,10,21,19.90
2012,05,26,10,22,20.10
2012,05,26,10,23,20.20
2012,05,26,10,24,20.30
2012,05,26,10,25,20.40
2012,05,26,10,26,20.50
2012,05,26,10,27,20.70
2012,05,26,10,28,20.70
2012,05,26,10,29,20.70
2012,05,26,10,30,20.80
2012,05,26,10,31,20.80
2012,05,26,10,32,20.70
2012,05,26,10,33,20.60
2012,05,26,10,34,20.50
2012,05,26,10,35,20.50
2012,05,26,10,36,20.50
2012,05,26,10,37,20.50
2012,05,26,10,38,20.50
2012,05,26,10,39,20.50
2012,05,26,10,40,20.40
2012,05,26,10,41,20.50
2012,05,26,10,42,20.50
2012,05,26,10,43,20.50
2012,05,26,10,44,20.60
2012,05,26,10,45,20.70
2012,05,26,10,46,20.70
2012,05,26,10,47,20.70
2012,05,26,10,48,20.70
2012,05,26,10,49,20.70
2012,05,26,10,50,20.80
2012,05,26,10,51,20.90
2012,05,26,10,52,21.00
2012,05,26,10,53,21.00
2012,05,26,10,54,21.20
2012,05,26,10,55,21.30
2012,05,26,10,56,21.30
2012,05,26,10,57,21.30
2012,05,26,10,58,21.30
2012,05,26,10,59,21.30
2012,05,26,11,00,21.30
2012,05,26,11,01,21.30
2012,05,26,11,02,21.30
2012,05,26,11,03,21.40
2012,05,26,11,04,21.50
2012,05,26,11,05,21.60
2012,05,26,11,06,21.60
2012,05,26,11,07,21.70
2012,05,26,11,08,21.80
2012,05,26,11,09,21.80
2012,05,26,11,10,21.80
2012,05,26,11,11,21.90
2012,05,26,11,12,22.00
2012,05,26,11,13,22.00
2012,05,26,11,14,22.10
2012,05,26,11,15,22.10
2012,05,26,11,16,22.20
2012,05,26,11,17,22.20
2012,05,26,11,18,22.30
2012,05,26,11,19,22.30
2012,05,26,11,20,22.30
2012,05,26,11,21,22.40
2012,05,26,11,22,22.40
2012,05,26,11,23,22.30
2012,05,26,11,24,22.20
2012,05,26,11,25,22.00
2012,05,26,11,26,21.90
2012,05,26,11,27,21.70
2012,05,26,11,28,21.70
2012,05,26,11,29,21.80
2012,05,26,11,30,21.90
2012,05,26,11,31,21.90
2012,05,26,11,32,21.90
2012,05,26,11,33,21.90
2012,05,26,11,34,21.90
2012,05,26,11,35,21.90
2012,05,26,11,36,21.90
2012,05,26,11,37,21.90
2012,05,26,11,38,22.00
2012,05,26,11,39,22.00
2012,05,26,11,40,22.20
2012,05,26,11,41,22.10
2012,05,26,11,42,21.80
2012,05,26,11,43,21.60
2012,05,26,11,44,21.50
2012,05,26,11,45,21.40
2012,05,26,11,46,21.40
2012,05,26,11,47,21.40
2012,05,26,11,48,21.60
2012,05,26,11,49,21.60
2012,05,26,11,50,21.60
2012,05,26,11,51,21.70
2012,05,26,11,52,21.80
2012,05,26,11,53,21.90
2012,05,26,11,54,22.00
2012,05,26,11,55,22.10
2012,05,26,11,56,22.00
2012,05,26,11,57,22.10
2012,05,26,11,58,22.00
2012,05,26,11,59,22.00
2012,05,26,12,00,22.00
2012,05,26,12,01,22.00
2012,05,26,12,02,22.00
2012,05,26,12,03,22.10
2012,05,26,12,04,22.10
2012,05,26,12,05,22.20
2012,05,26,12,06,22.20
2012,05,26,12,07,22.20
2012,05,26,12,08,22.20
2012,05,26,12,09,22.20
2012,05,26,12,10,22.10
2012,05,26,12,11,22.10
2012,05,26,12,12,22.10
2012,05,26,12,13,22.10
2012,05,26,12,14,22.20
2012,05,26,12,15,22.30
2012,05,26,12,16,22.40
2012,05,26,12,17,22.40
2012,05,26,12,18,22.30
2012,05,26,12,19,22.10
2012,05,26,12,20,22.00
2012,05,26,12,21,21.90
2012,05,26,12,22,21.90
2012,05,26,12,23,22.00
2012,05,26,12,24,22.00
2012,05,26,12,25,22.20
2012,05,26,12,26,22.30
2012,05,26,12,27,22.50
2012,05,26,12,28,22.60
2012,05,26,12,29,22.60
2012,05,26,12,30,22.70
2012,05,26,12,31,22.80
2012,05,26,12,32,22.80
2012,05,26,12,33,22.90
2012,05,26,12,34,22.90
2012,05,26,12,35,22.90
2012,05,26,12,36,23.00
2012,05,26,12,37,23.10
2012,05,26,12,38,23.20
2012,05,26,12,39,23.30
2012,05,26,12,40,23.20
2012,05,26,12,41,23.10
2012,05,26,12,42,23.10
2012,05,26,12,43,23.20
2012,05,26,12,44,23.30
2012,05,26,12,45,23.20
2012,05,26,12,46,23.20
2012,05,26,12,47,23.20
2012,05,26,12,48,23.20
2012,05,26,12,49,23.30
2012,05,26,12,50,23.40
2012,05,26,12,51,23.50
2012,05,26,12,52,23.60
2012,05,26,12,53,23.70
2012,05,26,12,54,23.70
2012,05,26,12,55,23.70
2012,05,26,12,56,23.60
2012,05,26,12,57,23.40
2012,05,26,12,58,23.30
2012,05,26,12,59,23.20
2012,05,26,13,00,23.10
2012,05,26,13,01,23.10
2012,05,26,13,02,23.20
2012,05,26,13,03,23.30
2012,05,26,13,04,23.40
2012,05,26,13,05,23.50
2012,05,26,13,06,23.50
2012,05,26,13,07,23.40
2012,05,26,13,08,23.30
2012,05,26,13,09,23.30
2012,05,26,13,10,23.30
2012,05,26,13,11,23.30
2012,05,26,13,12,23.30
2012,05,26,13,13,23.30
2012,05,26,13,14,23.10
2012,05,26,13,15,22.90
2012,05,26,13,16,22.80
2012,05,26,13,17,22.80
2012,05,26,13,18,22.90
2012,05,26,13,19,22.90
2012,05,26,13,20,22.80
2012,05,26,13,21,22.70
2012,05,26,13,22,22.50
2012,05,26,13,23,22.40
2012,05,26,13,24,22.40
2012,05,26,13,25,22.40
2012,05,26,13,26,22.40
2012,05,26,13,27,22.40
2012,05,26,13,28,22.40
2012,05,26,13,29,22.50
2012,05,26,13,30,22.60
2012,05,26,13,31,22.70
2012,05,26,13,32,22.70
2012,05,26,13,33,22.70
2012,05,26,13,34,22.70
2012,05,26,13,35,22.80
2012,05,26,13,36,22.80
2012,05,26,13,37,22.90
2012,05,26,13,38,22.90
2012,05,26,13,39,23.00
2012,05,26,13,40,23.00
2012,05,26,13,41,23.00
2012,05,26,13,42,22.90
2012,05,26,13,43,23.00
2012,05,26,13,44,22.90
2012,05,26,13,45,22.70
2012,05,26,13,46,22.40
2012,05,26,13,47,22.20
2012,05,26,13,48,22.00
2012,05,26,13,49,22.00
2012,05,26,13,50,22.00
2012,05,26,13,51,22.10
2012,05,26,13,52,22.20
2012,05,26,13,53,22.20
2012,05,26,13,54,22.20
2012,05,26,13,55,22.30
2012,05,26,13,56,22.50
2012,05,26,13,57,22.60
2012,05,26,13,58,22.70
2012,05,26,13,59,22.80
2012,05,26,14,00,22.70
2012,05,26,14,01,22.70
2012,05,26,14,02,22.70
2012,05,26,14,03,22.60
2012,05,26,14,04,22.60
2012,05,26,14,05,22.60
2012,05,26,14,06,22.50
2012,05,26,14,07,22.60
2012,05,26,14,08,22.70
2012,05,26,14,09,22.90
2012,05,26,14,10,22.90
2012,05,26,14,11,23.00
2012,05,26,14,12,23.20
2012,05,26,14,13,23.20
2012,05,26,14,14,23.30
2012,05,26,14,15,23.30
2012,05,26,14,16,23.30
2012,05,26,14,17,23.40
2012,05,26,14,18,23.40
2012,05,26,14,19,23.40
2012,05,26,14,20,23.50
2012,05,26,14,21,23.40
2012,05,26,14,22,23.40
2012,05,26,14,23,23.40
2012,05,26,14,24,23.50
2012,05,26,14,25,23.60
2012,05,26,14,26,23.60
2012,05,26,14,27,23.50
2012,05,26,14,28,23.30
2012,05,26,14,29,23.30
2012,05,26,14,30,23.30
2012,05,26,14,31,23.30
2012,05,26,14,32,23.30
2012,05,26,14,33,23.30
2012,05,26,14,34,23.30
2012,05,26,14,35,23.40
2012,05,26,14,36,23.40
2012,05,26,14,37,23.40
2012,05,26,14,38,23.40
2012,05,26,14,39,23.60
2012,05,26,14,40,23.60
2012,05,26,14,41,23.70
2012,05,26,14,42,23.70
2012,05,26,14,43,23.70
2012,05,26,14,44,23.70
2012,05,26,14,45,23.50
2012,05,26,14,46,23.40
2012,05,26,14,47,23.40
2012,05,26,14,48,23.30
2012,05,26,14,49,23.40
2012,05,26,14,50,23.40
2012,05,26,14,51,23.40
2012,05,26,14,52,23.40
2012,05,26,14,53,23.40
2012,05,26,14,54,23.50
2012,05,26,14,55,23.60
2012,05,26,14,56,23.70
2012,05,26,14,57,23.70
2012,05,26,14,58,23.70
2012,05,26,14,59,23.70
2012,05,26,15,00,23.70
2012,05,26,15,01,23.70
2012,05,26,15,02,23.70
2012,05,26,15,03,23.70
2012,05,26,15,04,23.70
2012,05,26,15,05,23.70
2012,05,26,15,06,23.60
2012,05,26,15,07,23.40
2012,05,26,15,08,23.20
2012,05,26,15,09,23.10
2012,05,26,15,10,23.10
2012,05,26,15,11,23.10
2012,05,26,15,12,23.20
2012,05,26,15,13,23.30
2012,05,26,15,14,23.40
2012,05,26,15,15,23.50
2012,05,26,15,16,23.60
2012,05,26,15,17,23.60
2012,05,26,15,18,23.70
2012,05,26,15,19,23.70
2012,05,26,15,20,23.60
2012,05,26,15,21,23.50
2012,05,26,15,22,23.40
2012,05,26,15,23,23.40
2012,05,26,15,24,23.40
2012,05,26,15,25,23.50
2012,05,26,15,26,23.60
2012,05,26,15,27,23.70
2012,05,26,15,28,23.80
2012,05,26,15,29,23.90
2012,05,26,15,30,24.00
2012,05,26,15,31,24.00
2012,05,26,15,32,23.80
2012,05,26,15,33,23.70
2012,05,26,15,34,23.70
2012,05,26,15,35,23.70
2012,05,26,15,36,23.60
2012,05,26,15,37,23.60
2012,05,26,15,38,23.50
2012,05,26,15,39,23.40
2012,05,26,15,40,23.40
2012,05,26,15,41,23.40
2012,05,26,15,42,23.40
2012,05,26,15,43,23.40
2012,05,26,15,44,23.40
2012,05,26,15,45,23.30
2012,05,26,15,46,23.30
2012,05,26,15,47,23.40
2012,05,26,15,48,23.40
2012,05,26,15,49,23.30
2012,05,26,15,50,23.30
2012,05,26,15,51,23.20
2012,05,26,15,52,23.20
2012,05,26,15,53,23.20
2012,05,26,15,54,23.10
2012,05,26,15,55,23.10
2012,05,26,15,56,23.10
2012,05,26,15,57,22.90
2012,05,26,15,58,22.90
2012,05,26,15,59,22.90
2012,05,26,16,00,22.90
2012,05,26,16,01,22.90
2012,05,26,16,02,22.90
2012,05,26,16,03,22.80
2012,05,26,16,04,22.70
2012,05,26,16,05,22.60
2012,05,26,16,06,22.60
2012,05,26,16,07,22.60
2012,05,26,16,08,22.60
2012,05,26,16,09,22.70
2012,05,26,16,10,22.70
2012,05,26,16,11,22.70
2012,05,26,16,12,22.70
2012,05,26,16,13,22.70
2012,05,26,16,14,22.90
2012,05,26,16,15,23.10
2012,05,26,16,16,23.20
2012,05,26,16,17,23.30
2012,05,26,16,18,23.40
2012,05,26,16,19,23.50
2012,05,26,16,20,23.60
2012,05,26,16,21,23.70
2012,05,26,16,22,23.80
2012,05,26,16,23,23.90
2012,05,26,16,24,23.90
2012,05,26,16,25,24.00
2012,05,26,16,26,24.10
2012,05,26,16,27,24.10
2012,05,26,16,28,24.10
2012,05,26,16,29,24.20
2012,05,26,16,30,24.30
2012,05,26,16,31,24.30
2012,05,26,16,32,24.40
2012,05,26,16,33,24.40
2012,05,26,16,34,24.50
2012,05,26,16,35,24.50
2012,05,26,16,36,24.60
2012,05,26,16,37,24.70
2012,05,26,16,38,24.70
2012,05,26,16,39,24.80
2012,05,26,16,40,24.80
2012,05,26,16,41,24.80
2012,05,26,16,42,24.90
2012,05,26,16,43,25.00
2012,05,26,16,44,25.00
2012,05,26,16,45,25.10
2012,05,26,16,46,25.00
2012,05,26,16,47,25.00
2012,05,26,16,48,25.00
2012,05,26,16,49,25.00
2012,05,26,16,50,25.00
2012,05,26,16,51,25.00
2012,05,26,16,52,25.00
2012,05,26,16,53,24.90
2012,05,26,16,54,24.90
2012,05,26,16,55,24.90
2012,05,26,16,56,24.90
2012,05,26,16,57,24.90
2012,05,26,16,58,24.80
2012,05,26,16,59,24.70
2012,05,26,17,00,24.70
2012,05,26,17,01,24.70
2012,05,26,17,02,24.80
2012,05,26,17,03,24.80
2012,05,26,17,04,24.80
2012,05,26,17,05,24.80
2012,05,26,17,06,24.90
2012,05,26,17,07,24.90
2012,05,26,17,08,25.00
2012,05,26,17,09,25.10
2012,05,26,17,10,25.10
2012,05,26,17,11,25.10
2012,05,26,17,12,25.20
2012,05,26,17,13,25.20
2012,05,26,17,14,25.10
2012,05,26,17,15,25.10
2012,05,26,17,16,25.00
2012,05,26,17,17,25.00
2012,05,26,17,18,25.00
2012,05,26,17,19,25.10
2012,05,26,17,20,25.10
2012,05,26,17,21,25.10
2012,05,26,17,22,25.20
2012,05,26,17,23,25.10
2012,05,26,17,24,25.10
2012,05,26,17,25,25.00
2012,05,26,17,26,25.00
2012,05,26,17,27,25.00
2012,05,26,17,28,25.00
2012,05,26,17,29,25.00
2012,05,26,17,30,24.90
2012,05,26,17,31,24.90
2012,05,26,17,32,24.90
2012,05,26,17,33,24.90
2012,05,26,17,34,24.90
2012,05,26,17,35,24.90
2012,05,26,17,36,24.90